Regional Weather Roundup
Issued by NWS

Home | Current Version | Previous Version | Graphics & Text | Print | Product List | Glossary On
Versions: 1 2 3 4 5 6 7 8 9 10 11 12 13 14 15 16 17 18 19 20 21 22 23 24 25 26 27 28 29 30 31 32 33 34 35 36 37 38 39 40 41 42 43 44 45 46 47 48 49 50
000
ASUS44 KMEG 121000
RWRTN
TENNESSEE HOURLY STATE WEATHER ROUNDUP
NATIONAL WEATHER SERVICE MEMPHIS TN
500 AM CDT SAT JUL 12 2014

TNZ002-004-019-021-049-052-054-088>092-121100-
WEST TENNESSEE

CITY           SKY/WX    TMP DP  RH WIND       PRES   REMARKS
MEMPHIS INTL   CLEAR     75  72  90 CALM      30.14R
NWS MEMPHIS      N/A     71 N/A N/A MISG        N/A
JACKSON        CLEAR     67  65  93 CALM      30.15R FOG
DYERSBURG      CLEAR     70  61  73 CALM      30.15S
UNION CITY     CLEAR     70  68  94 CALM      30.13S
PARIS          CLEAR     64  63  94 CALM      30.16S
LEXINGTON      CLEAR     66  64  94 CALM      30.15R
SAVANNAH       CLEAR     66  66 100 CALM      30.16R
$$

TNZ008-025-027-028-033-062-065-066-121100-
NORTH MIDDLE TENNESSEE

CITY           SKY/WX    TMP DP  RH WIND       PRES   REMARKS
NASHVILLE      CLEAR     69  65  86 CALM      30.17R
CLARKSVILLE    CLEAR     66  63  90 CALM      30.16R FOG
COOKEVILLE     CLEAR     63  61  94 CALM      30.18S
CROSSVILLE     CLEAR     64  60  87 CALM      30.23R
$$

TNZ061-075-076-078-094-096-097-121100-
SOUTH MIDDLE TENNESSEE

CITY           SKY/WX    TMP DP  RH WIND       PRES   REMARKS
FAYETTEVILLE   CLEAR     66  64  94 E10G22    30.17R
TULLAHOMA      CLEAR     64  61  88 CALM      30.18S
WINCHESTER     CLEAR     63  63 100 CALM      30.18R
MCMINNVILLE      N/A     63  63 100 CALM      30.19R VSB 1
COLUMBIA       CLEAR     66  66 100 CALM      30.15S
SHELBYVILLE    CLEAR     64  64 100 E3        30.17F
$$

TNZ017-018-042-046-047-121100-
NORTHEAST TENNESSEE

CITY           SKY/WX    TMP DP  RH WIND       PRES   REMARKS
TRI CITIES     PTCLDY    65  61  87 CALM      30.23R
ELIZABETHTON   SUNNY     66  63  88 NE5       30.25R
$$

TNZ012-013-036-069-073-074-121100-
CENTRAL EAST TENNESSEE

CITY           SKY/WX    TMP DP  RH WIND       PRES   REMARKS
KNOXVILLE      PTCLDY    70  66  87 NE3       30.18
OAK RIDGE      CLEAR     66  63  90 CALM      30.21R
GATLINBURG     PTSUNNY   68  64  88 CALM      30.19S
$$

TNZ083-085-099-121100-
SOUTHEAST TENNESSEE

CITY           SKY/WX    TMP DP  RH WIND       PRES   REMARKS
CHATTANOOGA    PTCLDY    71  67  87 CALM      30.19R
$$

SKY/WX REPORTED AS FAIR MEANS FEW OR NO CLOUDS BELOW
12 THOUSAND FEET.



USA.gov is the U.S. government's official web portal to all federal, state and local government web resources and services.